Regional Weather Roundup
Issued by NWS

Home | Current Version | Previous Version | Text Only | Print | Product List | Glossary On
Versions: 1 2 3 4 5 6 7 8 9 10 11 12 13 14 15 16 17 18 19 20 21 22 23 24 25 26 27 28 29 30 31 32 33 34 35 36 37 38 39 40 41 42 43 44 45 46 47 48 49 50
000
ASUS43 KLSX 201107
RWRMO

WEATHER SUMMARY FOR MISSOURI
NATIONAL WEATHER SERVICE SPRINGFIELD MO
600 AM CDT SUN APR 20 2014

NOTE: "FAIR" INDICATES FEW OR NO CLOUDS BELOW 12,000 FEET WITH NO
       SIGNIFICANT WEATHER AND/OR OBSTRUCTIONS TO VISIBILITY.
       CURRENT SKY AND/OR WEATHER CONDITIONS ARE NOT AVAILABLE FOR
       CHILLICOTHE AND FARMINGTON.

MOZ001>031-035>038-043-044-053-054-201200-
...NORTHERN AND WESTERN MISSOURI...

CITY           SKY/WX    TMP DP  RH WIND       PRES   REMARKS
KANSAS CTY INT PTCLDY    55  45  68 S9        30.08S
KANSAS C DTWN  MOCLDY    60  45  57 S8        30.08S
LEE`S SUMMIT   CLOUDY    59  45  59 S9        30.10S
ST JOSEPH      PTCLDY    58  46  64 SE5       30.07S
CHILLICOTHE      N/A     55  44  66 SE5       30.10F
KIRKSVILLE     MOCLDY    49  41  74 S8        30.12F

$$
MOZ066>068-077>081-088>096-101>105-201200-
...SOUTHWEST MISSOURI...

CITY           SKY/WX    TMP DP  RH WIND       PRES   REMARKS
SPRINGFIELD    CLOUDY    56  46  69 SE9       30.16S
JOPLIN         MOCLDY    56  48  74 S8        30.14S

$$
MOZ032>034-039>042-045>050-055>058-069>072-201200-
...CENTRAL MISSOURI...

CITY           SKY/WX    TMP DP  RH WIND       PRES   REMARKS
COLUMBIA       PTCLDY    55  41  59 SE9       30.15S
JEFFERSON CITY MOCLDY    53  41  63 E7        30.15F
ROLLA          MOCLDY    57  42  57 S9        30.17S
SEDALIA        CLOUDY    58  45  62 S10       30.14S
WHITEMAN AFB   CLOUDY    56  41  58 S8        30.12S
OSAGE BEACH    CLOUDY    55  41  58 SE7       30.18S

$$
MOZ051-052-059>065-201200-
...EAST CENTRAL MISSOURI...

CITY           SKY/WX    TMP DP  RH WIND       PRES   REMARKS
ST LOUIS INTL  MOCLDY    53  42  66 CALM      30.20S
SPIRIT OF STL  PTCLDY    44  41  89 CALM      30.18F
ST CHARLES     PTCLDY    46  43  89 NE5       30.19R

$$
MOZ072>076-082>087-097>100-106>115-201200-
...SOUTH CENTRAL AND SOUTHEAST MISSOURI...

CITY           SKY/WX    TMP DP  RH WIND       PRES   REMARKS
CAPE GIRARDEAU CLEAR     47  44  90 NE3       30.19S
FARMINGTON     PTCLDY    46  41  81 CALM      30.22S
POPLAR BLUFF   CLEAR     48  42  80 CALM      30.18R
WEST PLAINS    CLOUDY    49  42  77 CALM      30.20S

$$



USA.gov is the U.S. government's official web portal to all federal, state and local government web resources and services.